Weather in Iquique

Chile     20°15′11″S   70°07′45″W
temp.,
°C
wind,
m/s
gust,
m/s
humid.,
%
clouds,
%
prec.,
mm/h
press.,
hPa
HPBL,
m
17 june, thu
thu1723:00+16ssw44850 0.0 1017232
02:00+16ssw55830 0.0 1016274
05:00+16ssw55830 0.0 1015285
08:00+17ssw44812 0.0 1015262
11:00+17ssw448215 0.0 1016272
14:00+17ssw55847 0.0 1014281
17:00+17ssw558510 0.0 1013291
20:00+17ssw33856 0.0 1014277
18 june, fri
fri1823:00+17ssw33875 0.0 1015223
02:00+16s33861 0.0 1015239
05:00+17ssw338564 0.0 1014250
08:00+17ssw448423 0.0 1016315
11:00+17ssw338326 0.0 1017294
14:00+16ssw558724 0.0 1016352
17:00+17ssw558792 0.0 1015363
20:00+17ssw558645 0.0 1016407
19 june, sat
sat1923:00+17ssw548719 0.0 1017373
02:00+16ssw558723 0.0 1015361
05:00+16ssw448658 0.0 1014393
08:00+16ssw448422 0.0 1016393
11:00+16sw338473 0.0 1017384
14:00+16sw2283100 0.0 1016358
17:00+16s118188 0.0 1016339
20:00+16wsw007761 0.1 1018384
20 june, sun
sun2023:00+16nne1177100 0.0 1018293
02:00+16sse2278100 0.1 1018348
05:00+16ssw1280100 0.0 1017190
08:00+16s228144 0.0 1018316
11:00+16sse1279100 0.0 1019432
14:00+16ssw1281100 0.0 1018322
17:00+16ssw3380100 0.0 1017385
20:00+17ssw4579100 0.0 1019597
21 june, mon
mon2123:00+16s3478100 0.0 1019542
02:00+16ssw3478100 0.0 1019463
05:00+16s4479100 0.0 1017443
08:00+16s5579100 0.0 1018495
11:00+16ssw448081 0.0 1018363
14:00+17ssw668213 0.0 1016460
17:00+16ssw558394 0.0 1014398
20:00+16ssw548273 0.0 1016577